Weather Roundup
Issued by NWS

Home | Current Version | Previous Version | Text Only | Print | Product List | Glossary On
Versions: 1 2 3 4 5 6 7 8 9 10 11 12 13 14 15 16 17 18 19 20 21 22 23 24 25 26 27 28 29 30 31 32 33 34 35 36 37 38 39 40 41 42 43 44 45 46 47 48 49 50
000
NZUS93 KARX 201159
HRRWXR

CURRENT HOURLY OBSERVATIONS ACROSS
MUCH OF THE UPPER MISSISSIPPI VALLEY
NATIONAL WEATHER SERVICE LA CROSSE WI
700 AM CDT SUN APR 20 2014


...SOUTHEAST MINNESOTA...


CITY           SKY/WX    TMP DP  RH WIND       PRES   REMARKS
ROCHESTER      LGT RAIN  53  47  79 S9        30.05R
ROCHESTER/MAYO CLOUDY    54  48  78 SE8       30.04F
WINONA           N/A    N/A N/A N/A MISG        N/A
AUSTIN         CLOUDY    55  46  71 S7        30.04S
ALBERT LEA     CLOUDY    55  50  82 S10       30.02S
DODGE CENTER   CLOUDY    55  50  82 S9        30.03S
PRESTON        CLOUDY    55  44  68 S7        30.07S
OWATONNA       MOCLDY    55  48  76 S3        30.02R
FARIBAULT      HAZE      52  46  82 E3        30.03S VSB 1/4
$$

...ELSEWHERE IN MINNESOTA...


CITY           SKY/WX    TMP DP  RH WIND       PRES   REMARKS
MINNEAPOLIS    MOCLDY    46  45  96 N3        30.03S FOG
INTNL FALLS    CLEAR     30  28  92 SW5       30.03R WCI  25
DULUTH         CLEAR     37  34  89 NW7       30.03R WCI  32
RED WING       CLOUDY    48  48 100 CALM      30.03R FOG
REDWOOD FALLS  CLEAR     45  43  93 NW3       30.02S FOG
MANKATO        PTCLDY    52  45  76 E5        30.01S
WORTHINGTON    PTCLDY    48  36  61 E7        30.02F
FAIRMONT       PTCLDY    46  43  87 N5        30.02S
$$

...SOUTHWEST WISCONSIN...


CITY           SKY/WX    TMP DP  RH WIND       PRES   REMARKS
LA CROSSE      CLOUDY    58  42  55 N3        30.09R
PRAIRIE DU CHI CLOUDY    61  38  43 S6        30.10R
BOSCOBEL       CLOUDY    61  40  45 S7        30.11R
LONE ROCK      NOT AVBL
PLATTEVILLE    CLOUDY    54  38  55 S6        30.14S
FORT MC COY    NOT AVBL
VIROQUA        CLOUDY    56  42  60 S10       30.10R
WIS DELLS      CLOUDY    54  38  53 S8        30.12R
$$

...ELSEWHERE IN WISCONSIN...


CITY           SKY/WX    TMP DP  RH WIND       PRES   REMARKS
MILWAUKEE      MOCLDY    48  34  58 S6        30.21R
MADISON        LGT RAIN  52  42  69 S12       30.15S
GREEN BAY      CLOUDY    49  42  77 S5        30.16R
EAU CLAIRE     NOT AVBL
BLACK RVR FLS  CLOUDY    61  35  37 SW3       30.06R
MEDFORD        RAIN      49  43  79 CALM      30.06R
WAUSAU         CLOUDY    49  42  77 S12       30.06S
WIS RAPIDS     CLOUDY    56  37  49 S6        30.10S
MARSHFIELD     CLOUDY    51  43  74 S12       30.07S
RICE LAKE      FOG       40  40  97 CALM      30.06R VSB<1/4
$$

...NORTHEAST IOWA...


CITY           SKY/WX    TMP DP  RH WIND       PRES   REMARKS
WATERLOO       CLOUDY    56  42  59 CALM      30.09R
DUBUQUE        CLOUDY    51  39  63 S9        30.12S
DECORAH        CLOUDY    57  43  58 S9G16     30.07S
MASON CITY     LGT RAIN  55  49  80 S5        30.05R
CHARLES CITY   LGT RAIN  54  45  71 S14       30.06S
OELWEIN        CLOUDY   N/A N/A N/A S13       30.09R
$$

...ELSEWHERE IN IOWA...


CITY           SKY/WX    TMP DP  RH WIND       PRES   REMARKS
DES MOINES     PTCLDY    57  44  62 S10       30.05R
IOWA CITY      MOCLDY    51  42  71 SE3       30.13R
FORT DODGE     CLOUDY    61  46  59 S9        30.02R
MARSHALLTOWN   LGT RAIN  54  47  77 S6        30.06S
CEDAR RAPIDS   MOCLDY    55  41  59 S8        30.09S
$$

...NORTHERN ILLINOIS...


CITY           SKY/WX    TMP DP  RH WIND       PRES   REMARKS
CHICAGO-OHARE  MOCLDY    45  30  55 S8        30.23R
DUPAGE         PTCLDY    45  30  55 S8        30.23R
CHICAGO-MIDWAY MOCLDY    47  27  45 S5        30.24R
MOLINE         CLEAR     51  37  58 S7        30.14F
ROCKFORD       MOCLDY    48  36  63 S15       30.21S
STERLING       PTCLDY    48  37  66 SE7       30.18S
PEORIA         PTCLDY    51  38  60 SE7       30.20S
$$

NOTE: "FAIR" INDICATES FEW OR NO CLOUDS BELOW 12,000 FEET WITH NO
SIGNIFICANT WEATHER AND/OR OBSTRUCTIONS TO VISIBILITY. WIND
SPEEDS ARE IN MILES-PER-HOUR.



USA.gov is the U.S. government's official web portal to all federal, state and local government web resources and services.